Weather History for Seldovia, AK

Change the Weather History Date:

Monday, November 5, 2012

  Actual Average (PAHO) Record (PAHO)
Temperature  
Mean Temperature 26 °F -  
Max Temperature 30 °F 39 °F 57 °F (1935)
Min Temperature 23 °F 26 °F 4 °F (1975)
Degree Days  
Heating Degree Days 38    
Moisture  
Dew Point 21 °F    
Average Humidity 80    
Maximum Humidity 89    
Minimum Humidity 54    
Precipitation  
Precipitation 0.15 in - - ()
Sea Level Pressure  
Sea Level Pressure 29.61 in    
Wind  
Wind Speed 3 mph (North)    
Max Wind Speed 9 mph    
Max Gust Speed -    
Visibility 5 miles    
Events Snow    
Averages and records for this station are not official NWS values.
T = Trace of Precipitation, MM = Missing Value Source: NWS Daily Summary

Daily Weather History Graph

Daily Weather History Graph

Search for Another Location

Airport:

Trip Planner

Search our weather history database for the weather conditions in past years. The results will help you decide how hot, cold, wet, or windy it might be!

Date:

Astronomy

Nov. 05, 2012 Rise Set
Actual Time 8:38 AM AKST 5:01 PM AKST
Civil Twilight 7:53 AM AKST 5:46 PM AKST
Nautical Twilight 7:03 AM AKST 6:36 PM AKST
Astronomical Twilight 6:16 AM AKST 7:23 PM AKST
Moon 10:53 PM AKST (11/5) 2:04 PM AKST (11/5)
Length of Visible Light 9h 53m
Length of Day
8h 22m
Waning Gibbous, 61% of the Moon is Illuminated
Nov 5
Waning Gibbous
Nov 6
Last Quarter
Nov 13
New
Nov 20
First Quarter
Nov 28
Full

Hourly Weather History & Observations

Time (AKST) Temp. Windchill Dew Point Humidity Pressure Visibility Wind Dir Wind Speed Gust Speed Precip Events Conditions
12:53 AM 25.0 °F - 21.9 °F 88% 29.44 in 10.0 mi Calm Calm - N/A   Clear
1:53 AM 24.1 °F - 21.0 °F 88% 29.45 in 10.0 mi Calm Calm - N/A   Clear
3:53 AM 24.1 °F - 21.0 °F 88% 29.47 in 10.0 mi Calm Calm - N/A   Clear
4:53 AM 23.0 °F - 19.9 °F 88% 29.49 in 10.0 mi Calm Calm - N/A   Clear
5:53 AM 25.0 °F - 19.9 °F 81% 29.50 in 10.0 mi Calm Calm - N/A   Clear
6:53 AM 25.0 °F - 19.9 °F 81% 29.52 in 10.0 mi Calm Calm - N/A   Clear
7:53 AM 24.1 °F - 19.0 °F 81% 29.52 in 10.0 mi Calm Calm - N/A   Clear
8:53 AM 25.0 °F - 19.0 °F 78% 29.54 in 10.0 mi Calm Calm - N/A   Clear
9:53 AM 25.0 °F - 19.9 °F 81% 29.56 in 10.0 mi Calm Calm - N/A   Clear
10:53 AM 26.1 °F - 21.0 °F 81% 29.58 in 10.0 mi Calm Calm - N/A   Clear
11:53 AM 28.9 °F 25.2 °F 18.0 °F 64% 29.60 in 10.0 mi North 3.5 mph - N/A   Clear
12:53 PM 28.9 °F 21.9 °F 17.1 °F 61% 29.61 in 10.0 mi Variable 6.9 mph - N/A   Overcast
1:53 PM 30.0 °F 24.1 °F 15.1 °F 54% 29.60 in 10.0 mi Variable 5.8 mph - N/A   Overcast
2:53 PM 30.0 °F 26.5 °F 15.1 °F 54% 29.61 in 10.0 mi Variable 3.5 mph - N/A   Overcast
3:53 PM 30.9 °F 24.3 °F 16.0 °F 54% 29.60 in 10.0 mi Variable 6.9 mph - N/A   Overcast
4:53 PM 28.9 °F 25.2 °F 18.0 °F 64% 29.62 in 10.0 mi Variable 3.5 mph - N/A   Overcast
5:32 PM 28.4 °F 22.2 °F 21.2 °F 74% 29.63 in 2.5 mi NNE 5.8 mph - 0.00 in Snow Light Snow
5:53 PM 27.0 °F 20.5 °F 21.9 °F 81% 29.63 in 2.0 mi North 5.8 mph - 0.00 in Snow Light Snow
6:12 PM 28.4 °F 21.2 °F 21.2 °F 74% 29.63 in 4.0 mi Variable 6.9 mph - 0.00 in Snow Light Snow
6:53 PM 27.0 °F 20.5 °F 23.0 °F 85% 29.65 in 3.0 mi North 5.8 mph - 0.00 in Snow Light Snow
7:28 PM 26.6 °F 19.1 °F 21.2 °F 80% 29.65 in 1.5 mi North 6.9 mph - 0.01 in Snow Light Snow
7:44 PM 26.6 °F 20.0 °F 23.0 °F 86% 29.65 in 0.8 mi NNE 5.8 mph - 0.03 in Snow Light Snow
7:53 PM 27.0 °F 19.5 °F 23.0 °F 85% 29.66 in 1.0 mi North 6.9 mph - 0.03 in Snow Light Snow
8:07 PM 26.6 °F 18.2 °F 23.0 °F 86% 29.66 in 2.0 mi North 8.1 mph - 0.00 in Snow Light Snow
8:53 PM 27.0 °F 18.7 °F 23.0 °F 85% 29.67 in 1.2 mi North 8.1 mph - 0.02 in Snow Light Snow
9:10 PM 26.6 °F 17.5 °F 23.0 °F 86% 29.67 in 2.5 mi North 9.2 mph - 0.01 in Snow Light Snow
9:27 PM 26.6 °F 20.0 °F 23.0 °F 86% 29.67 in 1.5 mi North 5.8 mph - 0.01 in Snow Light Snow
9:39 PM 26.6 °F 20.0 °F 23.0 °F 86% 29.67 in 0.8 mi North 5.8 mph - 0.02 in Snow Light Snow
9:53 PM 27.0 °F 18.0 °F 24.1 °F 89% 29.68 in 0.8 mi North 9.2 mph - 0.03 in Snow Light Snow
10:17 PM 26.6 °F 19.1 °F 23.0 °F 86% 29.68 in 0.8 mi North 6.9 mph - 0.01 in Snow Light Snow
10:26 PM 26.6 °F 19.1 °F 23.0 °F 86% 29.68 in 1.2 mi North 6.9 mph - 0.01 in Snow Light Snow
10:53 PM 26.1 °F 18.4 °F 23.0 °F 88% 29.69 in 1.0 mi North 6.9 mph - 0.03 in Snow Light Snow
11:16 PM 26.6 °F 20.0 °F 23.0 °F 86% 29.69 in 1.0 mi NNE 5.8 mph - 0.02 in Snow Light Snow
11:25 PM 26.6 °F 22.6 °F 23.0 °F 86% 29.69 in 1.0 mi Variable 3.5 mph - 0.03 in Snow Light Snow
11:53 PM 26.1 °F 20.5 °F 23.0 °F 88% 29.70 in 2.0 mi North 4.6 mph - 0.04 in Snow Light Snow